STARLINK-6029, 56803

Orbit data source: Space-Track

STARLINK-6029, 56803 is a payload satellite owned by SpaceX/Seattle (US) in LEO that was launched on Wed, 31 May 2023 UTC via an FALCON 9 launch vehicle from the Air Force Western Test Range (AFWTR). Payload-class satellites include a variety of spacecraft equipped with specific instruments for various scientific and technological missions. These include communications satellites like Starlink; space stations such as the ISS; scientific satellites like the Hubble; Earth observation satellites from companies like Planet Labs, Umbra, and HawkEye 360; GPS; miniature CubeSats for education and research; and military/defense satellites.

Loading next visibility...
Identifier
56803, 2023-078AN
Orbit
LEO
Country
Flag of USUS
Related business
Manufacturer
SpaceX/Seattle
Mission
Operational Commercial Communications
Bus & Motor
STARLINK, Unknown motor
Mass
305 kg wet, ~290 kg dry
Launch date (UTC)
2023-05-31 (3 years ago)
Launch vehicle
FALCON 9
Launch site
Air Force Western Test Range (AFWTR)
Object type
Payload
Rocket body
Debris
Shape & HBR
Box + 1 Pan, 10.1 m
Radar Cross Section
11.087 m², Large (>1 m²)

Expand to show TLE details & history
Last TLE update: 2 days ago

TLE from 2 days ago
0 STARLINK-6029
1 56803U 23078AN  26171.18482996  .00000436  00000-0  44308-4 0  9992
2 56803  69.9999  86.0041 0003025 269.1940  90.8873 14.98333216168038
Epoch: 2026-06-20T04:26Z
TLE epoch observation values (Epoch: 2026-06-20T04:26:09.308Z)
Latitude
0.00002°
Longitude
111.06224°
Altitude
574.503 km
Speed
7.574 km/s
True Right ascension
05h 44m 00s
True Declination
0° 00' 00"
Sunlit
Object was in daylight at epoch
Visualization orbit readout
Latitude
Unknown
Longitude
Unknown
Altitude
Unknown
Speed
Unknown
Apparent Right ascension
Unknown
Apparent Declination
Unknown
Sunlit
N/A
Visualization observer readout
Local Sidereal Time
00:51:20
Azimuth
Unknown
Elevation
Unknown
Doppler factor
Unknown
Orbital elements
Apogee altitude
572.096 km
Perigee altitude
567.892 km
Semi-major axis
6,948.131 km
Eccentricity
0.0003
Inclination
69.9999°
RAAN
86.0041°
Arg. of periapsis
269.194°
True anomaly
90.92196°
Mean anomaly
90.8873°
Eccentric anomaly
90.90463°
Mean motion
3.7475 °/min
Orbital period
96.06 mins
BSTAR
0.000044308
Loading maneuver chart data...
Computing Atmospheric mass density...

Documentation

Showing up to 5 results
|